Home   Weather   Mashhad   Past weeks

Flag for Iran Past Weather in Mashhad, Iran — Yesterday and Last 2 Weeks

Now
59 °F

Scattered clouds.


Feels Like: 57 °F
Forecast: 46 / 63 °F
Wind: 9 mph from Southeast

Location: Mashhad Airport

Current Time: Apr 27, 2017 at 2:01:31 pm

Latest Report: Apr 27, 2017 at 1:30 pm


Visibility: N/A

Pressure: 30.42 "Hg (27.08 "Hg at 981m altitude)

Humidity: 42%

Dew Point: 36 °F

Location of MashhadLocation

Past Weather in Mashhad — Graph

°F

Mashhad Temperature Yesterday

Maximum temperature yesterday: 68 °F (at 2:30 pm)
Minimum temperature yesterday: 54 °F (at 11:00 pm)
Average temperature yesterday: 61 °F

High & Low Weather Summary for the Past Weeks

 TemperatureHumidityPressure
High90 °F (Apr 15, 2:00 pm)100% (Apr 13, 2:00 am)30.45 "Hg (Apr 13, 2:00 am)
Low48 °F (Apr 13, 6:30 am)9% (Apr 24, 3:30 pm)29.80 "Hg (Apr 19, 4:00 pm)
Average66 °F50%30.07 "Hg
* Reported Apr 12 12:30 pm — Apr 27 12:30 pm, Mashhad, Weather by CustomWeather, © 2017

Note: Actual official high and low records may vary slightly from our data, if they occured in-between our weather recording intervals... More about our weather records

Advertising

Mashhad Weather History for the Previous 24 Hours

Scroll right to see more
 ConditionsComfort  
Time TempWeatherWind HumidityBarometerVisibility
12:30 pm
Thu, Apr 27
57 °FScattered clouds.14 mph44%30.45 "HgN/A
12:00 pm59 °FPartly sunny.7 mph42%30.45 "HgN/A
11:30 am55 °FBroken clouds.14 mph51%30.45 "HgN/A
11:00 am55 °FBroken clouds.9 mph51%30.45 "HgN/A
10:30 am55 °FBroken clouds.9 mph51%30.45 "HgN/A
10:00 am55 °FPartly sunny.12 mph47%30.45 "HgN/A
9:30 am54 °FPartly sunny.7 mph51%30.42 "HgN/A
9:00 am52 °FPartly sunny.7 mph54%30.42 "HgN/A
8:30 am52 °FPartly sunny.9 mph50%30.42 "HgN/A
8:00 am50 °FPartly sunny.12 mph58%30.42 "HgN/A
7:30 am50 °FBroken clouds.14 mph54%30.39 "HgN/A
6:30 am50 °FBroken clouds.16 mph54%30.39 "HgN/A
6:00 am50 °FPartly cloudy.16 mph62%30.39 "HgN/A
5:30 am50 °FPartly cloudy.16 mph67%30.36 "HgN/A
4:30 am50 °FPartly cloudy.12 mph67%30.36 "HgN/A
4:00 am50 °FPartly cloudy.9 mph71%30.36 "HgN/A
3:30 am50 °FPartly cloudy.12 mph71%30.36 "HgN/A
2:30 am50 °FPartly cloudy.12 mph71%30.36 "HgN/A
1:30 am50 °FPassing clouds.7 mph71%30.36 "HgN/A
1:00 am52 °FPassing clouds.12 mph72%30.36 "HgN/A
12:30 am52 °FPassing clouds.9 mph72%30.36 "HgN/A
11:30 pm
Wed, Apr 26
54 °FPassing clouds.7 mph63%30.36 "HgN/A
11:00 pm54 °FPartly cloudy.7 mph63%30.36 "HgN/A
10:30 pm55 °FPartly cloudy.12 mph63%30.36 "HgN/A
10:00 pm55 °FPartly cloudy.12 mph59%30.33 "HgN/A
9:30 pm57 °FPartly cloudy.14 mph59%30.36 "HgN/A
9:00 pm57 °FPartly cloudy.9 mph59%30.33 "HgN/A
8:30 pm57 °FPartly cloudy.12 mph59%30.33 "HgN/A
7:30 pm59 °FBroken clouds.12 mph55%30.30 "HgN/A
7:00 pm59 °FBroken clouds.14 mph59%30.27 "HgN/A
6:30 pm61 °FBroken clouds.12 mph59%30.27 "HgN/A
6:00 pm61 °FBroken clouds.12 mph55%30.24 "HgN/A
5:30 pm63 °FPartly sunny.14 mph52%30.24 "HgN/A
4:30 pm64 °FPartly sunny.14 mph60%30.24 "HgN/A
4:00 pm66 °FPartly sunny.14 mph56%30.24 "HgN/A
3:30 pm66 °FPartly sunny.16 mph46%30.24 "HgN/A
3:00 pm68 °FPartly sunny.9 mph46%30.24 "HgN/A
2:30 pm68 °FPartly sunny.14 mph46%30.24 "HgN/A
2:00 pm66 °FPartly sunny.9 mph49%30.24 "HgN/A
Weather by CustomWeather, © 2017

See weather overviewHow to use our weather pages